Regional Weather Roundup
Issued by NWS

Home | Current Version | Previous Version | Graphics & Text | Print | Product List | Glossary Off
Versions: 1 2 3 4 5 6 7 8 9 10 11 12 13 14 15 16 17 18 19 20 21 22 23 24 25 26 27 28 29 30 31 32 33 34 35 36 37 38 39 40 41 42 43 44 45 46 47 48 49 50

000
ASUS43 KTOP 210859
RWRKS

WEATHER ROUNDUP FOR KANSAS
NATIONAL WEATHER SERVICE GOODLAND KS
400 AM CDT MON AUG 21 2017

NOTE:  "FAIR" INDICATES FEW OR NO CLOUDS BELOW 12,000 FEET WITH NO
SIGNIFICANT WEATHER AND/OR OBSTRUCTIONS TO VISIBILITY.

KSZ001>006-013>018-027>032-041>047-211000-
NORTHWEST KANSAS

CITY           SKY/WX    TMP DP  RH WIND       PRES   REMARKS
GOODLAND       PTCLDY    66  63  90 S10       30.00S
HAYS           PTCLDY    78  65  63 S18G25    29.98S
HILL CITY      CLEAR     77  65  66 S13       29.96F
RUSSELL        CLOUDY    77  66  68 S17G24    29.97S
$$

KSZ061>065-074>080-084>089-211000-
SOUTHWEST KANSAS

CITY           SKY/WX    TMP DP  RH WIND       PRES   REMARKS
DODGE CITY     MOCLDY    74  66  76 S13       30.06R
ELKHART          N/A     68  61  78 SW8         N/A
GARDEN CITY    PTCLDY    69  62  78 S8        30.04S
GREAT BEND     CLOUDY    76  65  68 S16       30.02R
LIBERAL        CLOUDY    72  62  71 SW12      30.07F
$$

KSZ066>073-081>083-090>101-211000-
SOUTHEAST KANSAS

CITY           SKY/WX    TMP DP  RH WIND       PRES   REMARKS
CHANUTE        PTCLDY    74  72  93 SE6       30.02S
COFFEYVILLE    PTCLDY    78  73  84 S8        30.01F
HUTCHINSON     CLOUDY    76  68  76 S10       30.01S
MEDICINE LODGE   N/A     72  67  84 W10G20    30.05R
NEWTON         CLOUDY    76  72  87 SW9       30.02S
PARSONS        MOCLDY    77  72  84 S6        30.03S
WICHITA INTL   CLOUDY    77  73  87 S6        30.01R
WICHITA JABRA  MOCLDY    78  74  87 S12       30.01R
WINFIELD       PTCLDY    78  73  84 S9        30.02F
$$

KSZ007>012-019>026-033>040-048>060-102>105-211000-
NORTHEAST KANSAS

CITY           SKY/WX    TMP DP  RH WIND       PRES   REMARKS
CONCORDIA      CLEAR     77  69  76 S16       29.94S
EMPORIA        PTCLDY    75  72  90 S12       29.99F
LAWRENCE       CLEAR     75  71  87 S7        29.98F
MANHATTAN      CLEAR     77  73  87 SW7       29.96R
OLATHE IND     CLEAR     72  68  87 S7        30.01R
OLATHE EXE     CLEAR     73  68  84 S7        30.01R
SALINA         CLEAR     81  69  67 S15       29.96S
TOPEKA BILLARD CLEAR     77  74  90 S6        29.97S
TOPEKA FORBES  PTCLDY    77  73  87 S7        29.98S
$$




USA.gov is the U.S. government's official web portal to all federal, state and local government web resources and services.